Aérodrome :
LOGIN :

S'inscrire | Disclaimer

   EN    FR    IT 

 










Légende :    VFR   VFR Marginal   IFR   IFR Intensif   IFR Très Intensif
Visi : 
Plafond : 
>= 8 km
>= 3000ft
5 à 8 km
1000 à 3000 ft
1500m à 5 km
500 à 1000 ft
800 à 1500m
200 à 500 ft
< 800m
< 200 ft
Symboles :   Orages  Brouillard  Fortes neiges  Fortes précipitations  Vent > 20 kt
SIGMETs :   Divers  Orages  Givrage  Turbulence  Onde Orograph.  Cendres Volcan.






- Altitude de l'aérodrome : 333 ft


LIPL - Ghedi Brescia (Mil)

DERNIER METAR :
  • 220955Z 24004KT 9999 FEW020 28/18 Q1010 RMK FEW VIS MIN 9999 WIND THR31 25005KT WIND THR13 25005KT BLU

METARs EXPIRÉS :
  • 220855Z 26004KT CAVOK 28/18 Q1010 RMK SKC VIS MIN 9999 WIND THR31 27007KT WIND THR13 28005KT BLU
  • 220755Z 28008KT CAVOK 27/19 Q1010 RMK SKC VIS MIN 9999 WIND THR31 28007KT WIND THR13 28008KT BLU

TAF TAF LIPL
Valide du 22 à 09h jusqu'au 22 à 18h UTC


220800Z 2209/2218 31006KT 9999 FEW040



MET'MAP, la Météo Aéronautique d'un coup d'oeil ! - Copyright ORBIFLY Décembre 2007 - Disclaimer

ORBIFLY MET'MAP TEAM :

Programmation & Développement : Alexandra Zaïnal
Sur une idée originale de : Baudouin d'Aumeries
Assistance à la programmation : Marc-Olivier Méhu
Soutien technique & logistique : Manuel Goepfert

Contact : metmap@orbifly.com




SOURCES & CREDITS :

   NOAA